TimeMDT,TemperatureF,Dew PointF,Humidity,Sea Level PressureIn,VisibilityMPH,Wind Direction,Wind SpeedMPH,Gust SpeedMPH,PrecipitationIn,Events,Conditions,WindDirDegrees,DateUTC
12:30 AM,44.6,37.4,76,30.19,9.0,Variable,3.5,-,0.00,Rain,Light Rain,0,2013-05-21 06:30:00
12:54 AM,41.0,35.1,79,30.10,5.0,East,15.0,-,0.01,Rain,Light Rain,80,2013-05-21 06:54:00
1:14 AM,41.0,35.6,81,30.19,10.0,East,6.9,-,0.00,Rain,Light Rain,100,2013-05-21 07:14:00
1:54 AM,42.1,36.0,79,30.11,10.0,East,5.8,-,0.00,,Overcast,90,2013-05-21 07:54:00
2:54 AM,41.0,36.0,82,30.10,10.0,SE,6.9,-,0.00,,Overcast,130,2013-05-21 08:54:00
3:54 AM,39.9,37.0,89,30.10,10.0,SSE,8.1,-,N/A,,Mostly Cloudy,150,2013-05-21 09:54:00
4:54 AM,39.9,36.0,86,30.07,10.0,SSE,8.1,-,N/A,,Overcast,160,2013-05-21 10:54:00
5:54 AM,39.9,35.1,83,30.09,10.0,South,4.6,-,N/A,,Overcast,170,2013-05-21 11:54:00
6:54 AM,39.9,36.0,86,30.06,10.0,SE,9.2,-,N/A,,Overcast,140,2013-05-21 12:54:00
7:54 AM,45.0,36.0,71,30.03,10.0,South,8.1,-,N/A,,Clear,170,2013-05-21 13:54:00
8:54 AM,48.0,37.0,66,30.02,10.0,SSE,8.1,-,N/A,,Partly Cloudy,150,2013-05-21 14:54:00
9:23 AM,48.2,37.4,66,30.13,10.0,Calm,Calm,-,N/A,,Mostly Cloudy,0,2013-05-21 15:23:00
9:36 AM,46.4,37.4,71,30.13,10.0,Calm,Calm,-,N/A,,Scattered Clouds,0,2013-05-21 15:36:00
9:54 AM,48.0,37.0,66,30.01,10.0,Calm,Calm,-,N/A,,Scattered Clouds,0,2013-05-21 15:54:00
10:37 AM,50.0,39.2,66,30.12,10.0,WNW,4.6,-,N/A,,Mostly Cloudy,290,2013-05-21 16:37:00
10:54 AM,50.0,37.9,63,30.01,10.0,NNW,3.5,-,N/A,,Scattered Clouds,330,2013-05-21 16:54:00
11:54 AM,55.0,39.0,55,29.97,10.0,NNW,5.8,-,N/A,,Partly Cloudy,330,2013-05-21 17:54:00
12:54 PM,55.9,37.9,51,29.96,10.0,SW,5.8,-,N/A,,Mostly Cloudy,230,2013-05-21 18:54:00
1:54 PM,59.0,37.0,44,29.93,10.0,Variable,3.5,-,N/A,,Mostly Cloudy,0,2013-05-21 19:54:00
2:54 PM,59.0,37.9,46,29.91,10.0,Variable,5.8,-,N/A,,Scattered Clouds,0,2013-05-21 20:54:00
3:54 PM,62.1,36.0,38,29.88,10.0,NE,10.4,-,N/A,,Mostly Cloudy,40,2013-05-21 21:54:00
4:54 PM,62.1,28.9,29,29.86,10.0,West,8.1,-,N/A,,Scattered Clouds,280,2013-05-21 22:54:00
5:54 PM,62.1,28.9,29,29.83,10.0,NW,4.6,-,N/A,,Clear,310,2013-05-21 23:54:00
6:54 PM,60.1,28.9,31,29.83,10.0,Calm,Calm,-,N/A,,Partly Cloudy,0,2013-05-22 00:54:00
7:54 PM,60.1,30.0,32,29.79,10.0,Calm,Calm,-,N/A,,Partly Cloudy,0,2013-05-22 01:54:00
8:54 PM,57.0,36.0,45,29.80,10.0,SE,6.9,-,N/A,,Clear,140,2013-05-22 02:54:00
9:54 PM,54.0,39.0,57,29.81,10.0,Calm,Calm,-,0.00,Rain,Light Rain,0,2013-05-22 03:54:00
10:54 PM,51.1,39.9,66,29.82,10.0,East,3.5,-,0.00,,Clear,80,2013-05-22 04:54:00
11:54 PM,51.1,39.0,63,29.79,10.0,SE,4.6,-,N/A,,Clear,130,2013-05-22 05:54:00